Location: Belfast
(54.5830°N, 5.9330°W)
Time: 05:42:54
(UTC+00:00)

ISS - Visible Passes

Search period start: 25 November 2017 00:00
Search period end: 05 December 2017 00:00
Orbit: 401 x 407 km, 51.6° (Epoch: 25 November)

Date Brightness Start Highest point End Pass type
(mag) Time Alt. Az. Time Alt. Az. Time Alt. Az.
29 Nov -1.2 18:00:05 10° SSE 18:00:16 10° SE 18:00:16 10° SE visible
30 Nov -1.7 18:41:14 10° SSW 18:42:43 19° S 18:42:43 19° S visible
01 Dec -1.8 17:49:28 10° S 17:51:42 17° SSE 17:52:28 16° SE visible
01 Dec -0.8 19:24:30 10° WSW 19:25:06 14° SW 19:25:06 14° SW visible
02 Dec -1.3 16:58:15 10° SSE 16:59:31 12° SE 17:00:46 10° ESE visible
02 Dec -2.5 18:32:16 10° SW 18:34:47 32° S 18:34:47 32° S visible
03 Dec -2.3 17:40:11 10° SW 17:42:59 26° SSE 17:44:26 19° ESE visible
03 Dec -1.2 19:15:52 10° WSW 19:17:04 20° WSW 19:17:04 20° WSW visible
04 Dec -1.8 16:48:18 10° SSW 16:50:42 19° SSE 16:53:08 10° ESE visible
04 Dec -3.2 18:23:31 10° WSW 18:26:41 44° S 18:26:41 44° S visible
